Regional Weather Roundup
Issued by NWS Sterling, VA

Home | Current Version | Previous Version | Graphics & Text | Print | Product List | Glossary On
Versions: 1 2 3 4 5 6 7 8 9 10 11 12 13 14 15 16 17 18 19 20 21 22 23 24 25 26 27 28 29 30 31 32 33 34 35 36 37 38 39 40 41 42 43 44 45 46 47 48 49 50
000
ASUS41 KLWX 301210
RWRLWX

REGIONAL WEATHER ROUNDUP
NATIONAL WEATHER SERVICE BALTIMORE MD/WASHINGTON DC
800 AM EDT MON MAY 30 2016

Note: "FAIR" indicates few or no clouds below 12,000 feet
with no significant weather and/or obstructions to visibility.
 TC=TEMPERATURE CELSIUS

 * =Non NWS site. Station does not report precipitation (e.g. rain,
    snow, etc.), thunder, or fog.

DCZ001-MDZ009-015-VAZ040>042-051-053>054-301300-
WASHINGTON METRO

CITY           SKY/WX    TMP DP  RH WIND       PRES   REMARKS
WASHINGTON NAT CLOUDY    71  66  84 CALM      30.04R
DULLES         PTSUNNY   68  63  84 NW5       30.05R
ANDREWS AFB    CLOUDY    68  65  89 N3        30.03R
FT BELVOIR     CLOUDY    69  67  93 N1        30.03R
QUANTICO       CLOUDY    70  67  90 CALM      30.04R
COLLEGE PARK*  CLOUDY    68  63  83 CALM      30.03S
LEESBURG*      CLOUDY    68  68 100 N3        30.06R
MANASSAS*      PTSUNNY   70  66  88 CALM      30.04R

$$

MDZ006>007-011-014-301300-
BALTIMORE METRO

CITY           SKY/WX    TMP DP  RH WIND       PRES   REMARKS
BWI AIRPORT    CLOUDY    69  64  84 VRB3      30.03R
MD SCIENCE CTR   N/A     71  62  73 MISG      30.04R
MARTIN STATE   PTSUNNY   70  70 100 NW6       30.04R
ANNAPOLIS      CLOUDY    70  65  84 NW6       30.02R
FORT MEADE*    CLOUDY    68  64  88 CALM      30.06R

$$

MDZ012-015-019>023-301300-
MARYLAND EASTERN SHORE

CITY           SKY/WX    TMP DP  RH WIND       PRES   REMARKS
OCEAN CITY     LGT RAIN  70  70 100 SW8       30.03R
SALISBURY      CLOUDY    72  71  97 S3        30.02S
BAY BRIDGE AP* CLOUDY    70  68  94 NW5       30.03R
CAMBRIDGE*     CLOUDY    72  70  94 CALM      30.02R
EASTON*        CLOUDY    73  73 100 CALM      30.05S

$$

MDZ017>025-301300-
SOUTHERN MARYLAND

CITY           SKY/WX    TMP DP  RH WIND       PRES   REMARKS
PATUXENT RIVER CLOUDY    71  69  93 CALM      30.01S FOG
ST INIGOES     CLOUDY    74  72  93 SW3       30.01S
LEONARDTOWN*   CLOUDY    70  68  94 CALM      30.04R VSB 1/2

$$

MDZ003>005-301300-
NORTH CENTRAL MARYLAND

CITY           SKY/WX    TMP DP  RH WIND       PRES   REMARKS
FREDERICK*     PTSUNNY   66  66 100 CALM      30.07R
HAGERSTOWN APT CLOUDY    67  64  90 SE3       30.04S FOG
WESTMINSTER*   PTSUNNY   66  63  88 CALM      30.05R

$$

MDZ501>502-301300-
WESTERN MARYLAND

CITY           SKY/WX    TMP DP  RH WIND       PRES   REMARKS
OAKLAND*       CLOUDY    61  55  82 W6        30.11S
CUMBERLAND*    CLOUDY    64  64 100 CALM      30.09S

$$

VAZ025>031-301300-
SHENANDOAH VALLEY

CITY           SKY/WX    TMP DP  RH WIND       PRES   REMARKS
WINCHESTER*    CLOUDY    64  61  88 S3        30.05S
FRONT ROYAL*   CLOUDY    63  61  94 SW5       30.05R
LURAY*         CLOUDY    63  63 100 S3        30.07R
NEW MARKET*    CLOUDY    61  60  96 CALM      30.06S
STAUNTON*      CLOUDY    61  59  94 CALM      30.10R
WAYNESBORO*    CLOUDY    60  59  96 CALM      30.08R

$$

WVZ021-048>050-054>055-301300-
EASTERN WEST VIRGINIA PANHANDLE

CITY           SKY/WX    TMP DP  RH WIND       PRES   REMARKS
MARTINSBURG    FAIR      64  62  93 CALM      30.04S
PETERSBURG*    FAIR      64  61  90 CALM      30.06F

$$

VAZ036>039-050-301300-
CENTRAL FOOTHILLS

CITY           SKY/WX    TMP DP  RH WIND       PRES   REMARKS
CHARLOTTESVILL CLOUDY    67  61  81 CALM      30.05R
CULPEPER*      CLOUDY    67  67 100 CALM      30.05S
ORANGE*        PTSUNNY   68  68 100 CALM      30.06R
GORDONSVILLE*  PTSUNNY   67  65  95 CALM      30.04R
WARRENTON*     CLOUDY    69  64  85 CALM      30.04R

$$

VAZ055>057-301300-
NORTH AND CENTRAL PIEDMONT

CITY           SKY/WX    TMP DP  RH WIND       PRES   REMARKS
FREDERICKSBRG* CLOUDY    69  69 100 CALM      30.02S
STAFFORD*      CLOUDY    67  65  93 CALM      30.08R

$$

NCZ024-NYZ072-PAZ021-071-VAZ022-071-301300-
OTHER REGIONAL OBSERVATIONS

CITY           SKY/WX    TMP DP  RH WIND       PRES   REMARKS
NEW YORK CITY  CLOUDY    68  66  93 VRB3      30.02R FOG
PHILADELPHIA   CLOUDY    71  68  90 NW6       30.02R
PITTSBURGH     PTSUNNY   67  61  81 SW3       30.03R
ROANOKE        PTSUNNY   64  60  87 N3        30.09S
RICHMOND       CLOUDY    68  67  96 NW3       30.02S FOG
RALEIGH        FOG       68  66  93 N5        30.01S VSB 1/4

$$

ANZ530>537-301300-
MARINE OBSERVATIONS

STATION/POSITION TIME  TEMP    WIND        PRES
                       AIR SEA DIR/SP/G
                 (UTC) (F)     (DEG/KT/KT) (MB)
THOMAS PT LIGHT  1200   69 69  350/  4/  5 1018.0R
BALT KEY BRIDGE  1100   70     350/  3/  3 1016.4R
COVE POINT       1100   67     340/  5/  5 1016.9R
LEWISETTA        1100   73 71  250/  3/  3 1015.9R
SOLOMONS ISLAND  1100   70 68  330/  4/  5   N/A
PINEY POINT      1100          330/  4/  5   N/A

$$




USA.gov is the U.S. government's official web portal to all federal, state and local government web resources and services.